Home > Weather > Garoua > Past weeks

Flag for Cameroon Weather for the Past 2 Weeks in Garoua, Cameroon

Now
57 °F

Clear.


Feels Like: 57 °F
Forecast: 63 / 100 °F
Wind: No wind

Location: Ndjamena

Current Time: Feb 14, 2016 at 3:46:41 AM

Latest Report: Feb 14, 2016 at 2:00 AM


Visibility: 10 mi

Pressure: 29.92 "Hg

Humidity: 36%

Dew point: 30 °F

Location of GarouaLocation

Historic Weather in Garoua — Graph

°F

Garoua Temperature Yesterday

Maximum temperature yesterday: 90 °F (at 1:00 PM)
Minimum temperature yesterday: 59 °F (at 7:00 AM)
Average temperature yesterday: 76 °F

High & Low Weather Summary for the Past Weeks

 TemperatureHumidityPressure
High95 °F (Feb 3, 2:00 PM)44% (Feb 8, 7:00 AM)30.12 "Hg (Feb 8, 7:00 AM)
Low52 °F (Jan 31, 7:00 AM)5% (Feb 1, 4:00 PM)29.83 "Hg (Feb 3, 4:00 PM)
Average74 °F16%29.97 "Hg
* Reported Jan 30 3:00 AM — Feb 14 2:00 AM, Garoua, Weather by CustomWeather, © 2016

Note: Actual official high and low records may vary slightly from our data, if they occured in-between our weather recording intervals... More about our weather records

Advertising

Garoua Weather History for the Previous 24 Hours

 ConditionsComfort  
Time TempWeatherWind HumidityBarometerVisibility
2:00 AM
Sun, Feb 14
57 °FClear.No wind36%29.92 "Hg10 mi
12:00 AM63 °FClear.3 mph25%29.92 "Hg5 mi
11:00 PM
Sat, Feb 13
63 °FClear.3 mph24%29.95 "Hg4 mi
10:00 PM84 °FClear.No wind11%29.95 "Hg4 mi
9:00 PM73 °FClear.2 mph14%29.95 "Hg4 mi
8:00 PM77 °FClear.5 mph12%29.92 "Hg4 mi
7:00 PM81 °FClear.5 mph11%29.89 "Hg4 mi
6:00 PM84 °FClear.6 mph7%29.86 "Hg4 mi
5:00 PM90 °FClear.8 mph6%29.86 "Hg4 mi
4:00 PM88 °FClear.8 mph6%29.86 "Hg4 mi
3:00 PM90 °FClear.7 mph6%29.86 "Hg4 mi
2:00 PM90 °FClear.6 mph6%29.89 "Hg5 mi
1:00 PM90 °FPassing clouds.7 mph6%29.89 "HgN/A
12:00 PM86 °FPassing clouds.9 mph6%29.95 "HgN/A
11:00 AM82 °FPassing clouds.10 mph7%29.95 "HgN/A
10:00 AM81 °FClear.9 mph8%29.98 "Hg4 mi
9:00 AM75 °FClear.9 mph10%29.98 "Hg4 mi
8:00 AM64 °FClear.7 mph16%29.98 "Hg4 mi
7:00 AM59 °FClear.7 mph20%29.95 "Hg4 mi
6:00 AM61 °FClear.No wind19%29.92 "Hg10 mi
5:00 AM63 °FClear.No wind17%29.92 "Hg10 mi
4:00 AM63 °FClear.5 mph16%29.92 "Hg5 mi
3:00 AM64 °FClear.5 mph15%29.92 "Hg5 mi
Weather by CustomWeather, © 2016

See weather overviewHow to use our weather pages